Flag for U.S.A. Weather past 2 weeks in Berkeley, California, U.S.A.

Now
54 °F

Overcast.


Feels Like: 50 °F
Forecast: 54 / 64 °F
Wind: 13 mph from Southwest

Location: Metro Oakland International Airport

Current Time: May 24, 2015 at 10:40:37 PM

Latest Report: May 24, 2015 at 9:53 PM


Visibility: 10 mi

Pressure: 30.00 "Hg

Humidity: 86%

Dew point: 50 °F

Location of BerkeleyLocation

Historic Weather in Berkeley — Graph

°F

Berkeley temperature yesterday

Maximum temperature yesterday: 62 °F (at 3:53 PM)
Minimum temperature yesterday: 53 °F (at 4:53 AM)
Average temperature yesterday: 56 °F

Past Weeks' High & Low Weather Summary

 TemperatureHumidityPressure
High65 °F (May 14, 12:53 PM)90% (May 20, 10:53 PM)30.12 "Hg (May 20, 10:53 PM)
Low51 °F (May 10, 3:53 AM)43% (May 12, 1:53 PM)29.79 "Hg (May 14, 5:53 PM)
Average57 °F73%29.99 "Hg
* Reported May 9 8:53 PM — May 24 8:53 PM, Berkeley, Weather by CustomWeather, © 2015

Note: Actual official high and low records may vary slightly from our data, if they occured in-between our weather recording intervals... More about our weather records

Advertising

Berkeley weather history for previous 24 hours

 ConditionsComfort  
Time TempWeatherWind HumidityBarometerVisibility
8:53 PM
Sun, May 24
54 °FOvercast.14 mph86%29.99 "Hg9 mi
7:53 PM55 °FOvercast.13 mph83%29.98 "Hg10 mi
6:53 PM56 °FOvercast.15 mph81%29.98 "Hg10 mi
5:53 PM56 °FOvercast.16 mph81%29.98 "Hg10 mi
4:53 PM58 °FOvercast.17 mph72%29.99 "Hg10 mi
3:53 PM59 °FOvercast.14 mph69%30.00 "Hg10 mi
2:53 PM60 °FOvercast.12 mph69%30.02 "Hg10 mi
1:53 PM60 °FPartly sunny.17 mph69%30.03 "Hg10 mi
12:53 PM60 °FPartly sunny.16 mph69%30.03 "Hg10 mi
11:53 AM58 °FOvercast.13 mph75%30.04 "Hg10 mi
10:53 AM56 °FMore clouds than sun.14 mph81%30.04 "Hg10 mi
10:01 AM54 °FMostly cloudy.12 mph82%30.04 "Hg10 mi
8:53 AM55 °FPartly sunny.14 mph83%30.04 "Hg10 mi
7:53 AM54 °FMostly cloudy.9 mph86%30.04 "Hg10 mi
6:53 AM53 °FPartly sunny.9 mph86%30.03 "Hg10 mi
5:53 AM53 °FPassing clouds.3 mph86%30.01 "Hg10 mi
4:53 AM53 °FPassing clouds.3 mph83%30.00 "Hg10 mi
3:53 AM54 °FPassing clouds.7 mph80%30.00 "Hg10 mi
2:53 AM53 °FPassing clouds.5 mph83%30.02 "Hg10 mi
1:53 AM54 °FOvercast.No wind83%30.04 "Hg10 mi
12:53 AM54 °FOvercast.8 mph83%30.06 "Hg10 mi
11:53 PM
Sat, May 23
54 °FMostly cloudy.13 mph83%30.06 "Hg10 mi
10:53 PM55 °FMostly cloudy.9 mph80%30.06 "Hg10 mi
Weather by CustomWeather, © 2015

See weather overviewHow to use our weather pages